NOAA 16 DEB, 41149

Orbit data source: Space-Track

NOAA 16 DEB, 41149 is space debris in SSO originally from a launch on Thu, 21 Sep 2000 UTC launched from the Air Force Western Test Range (AFWTR). Debris objects in space refer to the collection of defunct objects orbiting the Earth. Examples of debris include non-operational satellites, rocket bodies, and fragments generated from explosions, collisions, or faulty payload assembly.

Loading next visibility...
Identifier
41149, 2000-055CG
Orbit
SSO
Country
Flag of USUS
Related business
Manufacturer
Unknown
Mission
Spacecraft
Bus & Motor
Unknown
Mass
Unknown
Launch date (UTC)
2000-09-21 (25 years ago)
Launch vehicle
Unknown
Launch site
Air Force Western Test Range (AFWTR)
Object type
Payload
Rocket body
Debris
Shape & HBR
Unknown shape, 0.1 m
Radar Cross Section
Small (<0.1 m²)

Expand to show TLE details & history
Last TLE update: 1 day ago

TLE from 1 day ago
0 NOAA 16 DEB
1 41149U 00055CG  25311.65168200  .00035181  00000-0  55158-2 0  9993
2 41149  98.9284 198.4283 0037070 266.6902  93.0061 14.72088965521012
Epoch: 2025-11-07T15:38Z
TLE epoch observation values (Epoch: 2025-11-07T15:38:25.324Z)
Latitude
-0.00007°
Longitude
-83.26979°
Altitude
658.849 km
Speed
7.527 km/s
True Right ascension
13h 13m 42s
True Declination
0° 00' 00"
Sunlit
Object was in daylight at epoch
Visualization orbit readout
Latitude
Unknown
Longitude
Unknown
Altitude
Unknown
Speed
Unknown
Apparent Right ascension
Unknown
Apparent Declination
Unknown
Sunlit
N/A
Visualization observer readout
Local Sidereal Time
22:40:28
Azimuth
Unknown
Elevation
Unknown
Doppler factor
Unknown
Orbital elements
Apogee altitude
677.566 km
Perigee altitude
625.448 km
Semi-major axis
7,029.644 km
Eccentricity
0.00371
Inclination
98.9284°
RAAN
198.4283°
Arg. of periapsis
266.6902°
True anomaly
93.4302°
Mean anomaly
93.0061°
Eccentric anomaly
93.21816°
Mean motion
3.6825 °/min
Orbital period
97.76 mins
BSTAR
0.0055158
Loading maneuver chart data...
Computing Atmospheric mass density...
Loading historical data...
Loading historical data...
Loading historical data...
Loading historical data...
Loading historical data...
Loading historical data...
Loading historical data...

Documentation

Showing up to 5 results
|